Back to catalog

YAM-11

AliveCommunicationsSSO
NORAD 68991·PAYLOAD·🇺🇸 United States

Launched May 3, 2026 from Vandenberg Space Force Base

Loading…

Next Passes (next 24 hours)

TLE

FreshSource: Space-Track

Epoch: Sep 14, 2026, 13:02 UTC

1 68991U 26100M   26257.54354255  .00001105  00000-0  11916-3 0  9995
2 68991  97.7733 153.3619 0001930  87.1158 273.0281 14.90403983 20008

Track YAM-11 in real time with AllMySat

Download on the App Store